Home   Weather   Baker Island   Past weeks

Flag for US Minor Outlying Islands Past Weather in Baker Island, US Minor Outlying Islands — Yesterday and Last 2 Weeks

88 °F

Passing clouds.

Feels Like: 98 °F
Forecast: 77 / 84 °F
Wind: 8 mph from North

Location: Funafuti

Current Time: Oct 28, 2016 at 11:56:09 AM

Latest Report: Oct 28, 2016 at 11:00 AM

Visibility: N/A

Pressure: 29.80 "Hg

Humidity: 66%

Dew Point: 75 °F

Location of Baker IslandLocation

Past Weather in Baker Island — Graph


Baker Island Temperature Yesterday

Maximum temperature yesterday: 82 °F (at 4:00 AM)
Minimum temperature yesterday: 77 °F (at 10:00 AM)
Average temperature yesterday: 80 °F

High & Low Weather Summary for the Past Weeks

High91 °F (Oct 16, 12:00 PM)100% (Oct 27, 11:00 AM)29.86 "Hg (Oct 27, 11:00 AM)
Low77 °F (Oct 19, 3:00 PM)66% (Oct 21, 5:00 PM)29.68 "Hg (Oct 26, 4:00 PM)
Average84 °F81%29.79 "Hg
* Reported Oct 13 10:00 AM — Oct 28 10:00 AM, Baker Island, Weather by CustomWeather, © 2016

Note: Actual official high and low records may vary slightly from our data, if they occured in-between our weather recording intervals... More about our weather records


Baker Island Weather History for the Previous 24 Hours

Scroll right to see more
Time TempWeatherWind HumidityBarometerVisibility
10:00 AM
Fri, Oct 28
88 °FPassing clouds.13 mph66%29.83 "HgN/A
9:00 AM88 °FPassing clouds.3 mph66%29.83 "HgN/A
8:00 AM86 °FScattered clouds.12 mph70%29.83 "HgN/A
7:00 AM82 °FPassing clouds.7 mph79%29.80 "HgN/A
6:00 AM82 °FPartly sunny.5 mph79%29.83 "HgN/A
2:00 AM82 °FPassing clouds.8 mph84%29.74 "HgN/A
1:00 AM82 °FPartly cloudy.7 mph79%29.74 "HgN/A
12:00 AM82 °FPassing clouds.6 mph84%29.77 "HgN/A
11:00 PM
Thu, Oct 27
82 °FPassing clouds.6 mph84%29.77 "HgN/A
10:00 PM81 °FScattered showers. Partly cloudy.3 mph89%29.77 "HgN/A
9:00 PM81 °FPartly cloudy.No wind89%29.77 "HgN/A
8:00 PM82 °FPassing clouds.No wind79%29.77 "HgN/A
7:00 PM81 °FPartly cloudy.No wind84%29.74 "HgN/A
6:00 PM81 °FScattered showers. Mostly cloudy.3 mph84%29.71 "HgN/A
5:00 PM81 °FMore clouds than sun.6 mph84%29.71 "HgN/A
4:00 PM81 °FScattered showers. Overcast.6 mph84%29.71 "HgN/A
3:00 PM79 °FScattered showers. Overcast.5 mph89%29.74 "HgN/A
2:00 PM79 °FScattered showers. More clouds than sun.3 mph94%29.74 "HgN/A
1:00 PM79 °FScattered showers. More clouds than sun.6 mph89%29.77 "HgN/A
12:00 PM79 °FScattered showers. More clouds than sun.7 mph94%29.77 "HgN/A
11:00 AM77 °FRain showers. More clouds than sun.7 mph100%29.80 "HgN/A
Weather by CustomWeather, © 2016

See weather overviewHow to use our weather pages